contact:dominique.lefevre@mio.osupytheas.fr, maurice.libes@osupytheas.fr, didier.mallarino@osupytheas.fr
Project:EMSO http://www.emso-fr.org/EMSO-France
Depth: 2436.0 m
Title:EMSO Ligure Ouest : Data MII capteur MICROCAT
DateTime_Computer,Latitude,Longitude,Temperature,Conductivity,Pressure,DateTime_Instrument
DateTime_Computer,Latitude,Longitude,degC,S m-1,dbar,DateTime_Instrument
2023-02-16T00:00:01Z,42.805,6.029,13.3037,4.60118,2470.53,2023-2-16T02:02:25Z
2023-02-16T00:03:04Z,42.805,6.029,13.3035,4.60104,2470.483,2023-2-16T02:05:28Z
2023-02-16T00:06:07Z,42.805,6.029,13.3033,4.60105,2470.567,2023-2-16T02:08:31Z
2023-02-16T00:09:10Z,42.805,6.029,13.3036,4.60105,2470.53,2023-2-16T02:11:34Z
2023-02-16T00:12:13Z,42.805,6.029,13.3036,4.60104,2470.567,2023-2-16T02:14:37Z
2023-02-16T00:15:16Z,42.805,6.029,13.3050,4.60110,2470.507,2023-2-16T02:17:41Z
2023-02-16T00:18:19Z,42.805,6.029,13.3039,4.60104,2470.53,2023-2-16T02:20:44Z
2023-02-16T00:21:22Z,42.805,6.029,13.3039,4.60104,2470.553,2023-2-16T02:23:47Z
2023-02-16T00:24:25Z,42.805,6.029,13.3038,4.60110,2470.553,2023-2-16T02:26:50Z
2023-02-16T00:27:29Z,42.805,6.029,13.3038,4.60103,2470.53,2023-2-16T02:29:53Z
2023-02-16T00:30:32Z,42.805,6.029,13.3031,4.60123,2470.553,2023-2-16T02:32:56Z
2023-02-16T00:33:35Z,42.805,6.029,13.3031,4.60107,2470.567,2023-2-16T02:35:59Z
2023-02-16T00:36:38Z,42.805,6.029,13.3033,4.60109,2470.567,2023-2-16T02:39:02Z
2023-02-16T00:39:41Z,42.805,6.029,13.3042,4.60115,2470.553,2023-2-16T02:42:05Z
2023-02-16T00:42:44Z,42.805,6.029,13.3036,4.60120,2470.553,2023-2-16T02:45:08Z
2023-02-16T00:45:47Z,42.805,6.029,13.3031,4.60111,2470.544,2023-2-16T02:48:11Z
2023-02-16T00:48:50Z,42.805,6.029,13.3038,4.60110,2470.53,2023-2-16T02:51:14Z
2023-02-16T00:51:53Z,42.805,6.029,13.3046,4.60126,2470.553,2023-2-16T02:54:17Z
2023-02-16T00:54:56Z,42.805,6.029,13.3040,4.60134,2470.553,2023-2-16T02:57:21Z
2023-02-16T00:57:59Z,42.805,6.029,13.3036,4.60127,2470.567,2023-2-16T03:00:24Z
2023-02-16T01:01:02Z,42.805,6.029,13.3034,4.60115,2470.553,2023-2-16T03:03:27Z
2023-02-16T01:04:05Z,42.805,6.029,13.3033,4.60102,2470.544,2023-2-16T03:06:30Z
2023-02-16T01:07:09Z,42.805,6.029,13.3038,4.60115,2470.553,2023-2-16T03:09:33Z
2023-02-16T01:10:12Z,42.805,6.029,13.3031,4.60104,2470.577,2023-2-16T03:12:36Z
2023-02-16T01:13:15Z,42.805,6.029,13.3035,4.60110,2470.577,2023-2-16T03:15:39Z
2023-02-16T01:16:18Z,42.805,6.029,13.3029,4.60098,2470.544,2023-2-16T03:18:42Z
2023-02-16T01:19:21Z,42.805,6.029,13.3031,4.60098,2470.591,2023-2-16T03:21:45Z
2023-02-16T01:22:24Z,42.805,6.029,13.3035,4.60109,2470.591,2023-2-16T03:24:48Z
2023-02-16T01:25:27Z,42.805,6.029,13.3040,4.60127,2470.553,2023-2-16T03:27:51Z
2023-02-16T01:28:30Z,42.805,6.029,13.3039,4.60110,2470.591,2023-2-16T03:30:54Z
2023-02-16T01:31:33Z,42.805,6.029,13.3033,4.60107,2470.553,2023-2-16T03:33:58Z
2023-02-16T01:34:36Z,42.805,6.029,13.3037,4.60127,2470.591,2023-2-16T03:37:01Z
2023-02-16T01:37:39Z,42.805,6.029,13.3034,4.60115,2470.553,2023-2-16T03:40:04Z
2023-02-16T01:40:42Z,42.805,6.029,13.3036,4.60119,2470.577,2023-2-16T03:43:07Z
2023-02-16T01:43:45Z,42.805,6.029,13.3037,4.60121,2470.6,2023-2-16T03:46:10Z
2023-02-16T01:46:49Z,42.805,6.029,13.3030,4.60115,2470.6,2023-2-16T03:49:13Z
2023-02-16T01:49:52Z,42.805,6.029,13.3034,4.60106,2470.577,2023-2-16T03:52:16Z
2023-02-16T01:52:55Z,42.805,6.029,13.3038,4.60107,2470.577,2023-2-16T03:55:19Z
2023-02-16T01:55:58Z,42.805,6.029,13.3030,4.60119,2470.6,2023-2-16T03:58:22Z
2023-02-16T01:59:01Z,42.805,6.029,13.3042,4.60115,2470.614,2023-2-16T04:01:25Z
2023-02-16T02:02:04Z,42.805,6.029,13.3029,4.60114,2470.6,2023-2-16T04:04:28Z
2023-02-16T02:05:07Z,42.805,6.029,13.3031,4.60109,2470.577,2023-2-16T04:07:31Z
2023-02-16T02:08:10Z,42.805,6.029,13.3035,4.60120,2470.577,2023-2-16T04:10:34Z
2023-02-16T02:11:13Z,42.805,6.029,13.3035,4.60133,2470.591,2023-2-16T04:13:38Z
2023-02-16T02:14:16Z,42.805,6.029,13.3034,4.60125,2470.577,2023-2-16T04:16:41Z
2023-02-16T02:17:19Z,42.805,6.029,13.3036,4.60120,2470.553,2023-2-16T04:19:44Z
2023-02-16T02:20:22Z,42.805,6.029,13.3037,4.60122,2470.6,2023-2-16T04:22:47Z
2023-02-16T02:23:26Z,42.805,6.029,13.3033,4.60125,2470.6,2023-2-16T04:25:50Z
2023-02-16T02:26:29Z,42.805,6.029,13.3035,4.60113,2470.614,2023-2-16T04:28:53Z
2023-02-16T02:29:32Z,42.805,6.029,13.3034,4.60107,2470.6,2023-2-16T04:31:56Z
2023-02-16T02:32:35Z,42.805,6.029,13.3044,4.60119,2470.6,2023-2-16T04:34:59Z
2023-02-16T02:35:38Z,42.805,6.029,13.3032,4.60097,2470.577,2023-2-16T04:38:02Z
2023-02-16T02:38:41Z,42.805,6.029,13.3041,4.60119,2470.624,2023-2-16T04:41:05Z
2023-02-16T02:41:44Z,42.805,6.029,13.3037,4.60115,2470.6,2023-2-16T04:44:08Z
2023-02-16T02:44:47Z,42.805,6.029,13.3036,4.60100,2470.646,2023-2-16T04:47:11Z
2023-02-16T02:47:50Z,42.805,6.029,13.3041,4.60118,2470.614,2023-2-16T04:50:14Z
2023-02-16T02:50:53Z,42.805,6.029,13.3029,4.60104,2470.6,2023-2-16T04:53:18Z
2023-02-16T02:53:56Z,42.805,6.029,13.3039,4.60109,2470.624,2023-2-16T04:56:21Z
2023-02-16T02:56:59Z,42.805,6.029,13.3032,4.60117,2470.637,2023-2-16T04:59:24Z
2023-02-16T03:00:02Z,42.805,6.029,13.3039,4.60107,2470.6,2023-2-16T05:02:27Z
2023-02-16T03:03:06Z,42.805,6.029,13.3031,4.60104,2470.624,2023-2-16T05:05:30Z
2023-02-16T03:06:09Z,42.805,6.029,13.3038,4.60122,2470.6,2023-2-16T05:08:33Z
2023-02-16T03:09:12Z,42.805,6.029,13.3035,4.60104,2470.624,2023-2-16T05:11:36Z
2023-02-16T03:12:15Z,42.805,6.029,13.3034,4.60112,2470.6,2023-2-16T05:14:39Z
2023-02-16T03:15:18Z,42.805,6.029,13.3034,4.60104,2470.624,2023-2-16T05:17:42Z
2023-02-16T03:18:21Z,42.805,6.029,13.3043,4.60105,2470.624,2023-2-16T05:20:45Z
2023-02-16T03:21:24Z,42.805,6.029,13.3029,4.60106,2470.624,2023-2-16T05:23:48Z
2023-02-16T03:24:27Z,42.805,6.029,13.3034,4.60103,2470.624,2023-2-16T05:26:51Z
2023-02-16T03:27:30Z,42.805,6.029,13.3036,4.60114,2470.6,2023-2-16T05:29:55Z
2023-02-16T03:30:33Z,42.805,6.029,13.3039,4.60110,2470.637,2023-2-16T05:32:58Z
2023-02-16T03:33:36Z,42.805,6.029,13.3030,4.60112,2470.646,2023-2-16T05:36:01Z
2023-02-16T03:36:39Z,42.805,6.029,13.3036,4.60103,2470.6,2023-2-16T05:39:04Z
2023-02-16T03:39:43Z,42.805,6.029,13.3032,4.60108,2470.646,2023-2-16T05:42:07Z
2023-02-16T03:42:46Z,42.805,6.029,13.3038,4.60107,2470.614,2023-2-16T05:45:10Z
2023-02-16T03:45:49Z,42.805,6.029,13.3036,4.60112,2470.637,2023-2-16T05:48:13Z
2023-02-16T03:48:52Z,42.805,6.029,13.3036,4.60112,2470.646,2023-2-16T05:51:16Z
2023-02-16T03:51:55Z,42.805,6.029,13.3033,4.60105,2470.661,2023-2-16T05:54:19Z
2023-02-16T03:54:58Z,42.805,6.029,13.3035,4.60110,2470.646,2023-2-16T05:57:22Z
2023-02-16T03:58:01Z,42.805,6.029,13.3040,4.60133,2470.637,2023-2-16T06:00:25Z
2023-02-16T04:01:04Z,42.805,6.029,13.3042,4.60127,2470.6,2023-2-16T06:03:28Z
2023-02-16T04:04:07Z,42.805,6.029,13.3047,4.60137,2470.624,2023-2-16T06:06:32Z
2023-02-16T04:07:10Z,42.805,6.029,13.3034,4.60103,2470.637,2023-2-16T06:09:35Z
2023-02-16T04:10:13Z,42.805,6.029,13.3032,4.60105,2470.646,2023-2-16T06:12:38Z
2023-02-16T04:13:16Z,42.805,6.029,13.3034,4.60114,2470.624,2023-2-16T06:15:41Z
2023-02-16T04:16:19Z,42.805,6.029,13.3032,4.60106,2470.661,2023-2-16T06:18:44Z
2023-02-16T04:19:23Z,42.805,6.029,13.3038,4.60104,2470.646,2023-2-16T06:21:47Z
2023-02-16T04:22:26Z,42.805,6.029,13.3039,4.60104,2470.646,2023-2-16T06:24:50Z
2023-02-16T04:25:29Z,42.805,6.029,13.3036,4.60104,2470.624,2023-2-16T06:27:53Z
2023-02-16T04:28:32Z,42.805,6.029,13.3031,4.60117,2470.637,2023-2-16T06:30:56Z
2023-02-16T04:31:35Z,42.805,6.029,13.3040,4.60110,2470.637,2023-2-16T06:33:59Z
2023-02-16T04:34:38Z,42.805,6.029,13.3037,4.60115,2470.67,2023-2-16T06:37:02Z
2023-02-16T04:37:41Z,42.805,6.029,13.3040,4.60112,2470.646,2023-2-16T06:40:05Z
2023-02-16T04:40:44Z,42.805,6.029,13.3040,4.60112,2470.646,2023-2-16T06:43:08Z
2023-02-16T04:43:47Z,42.805,6.029,13.3036,4.60113,2470.646,2023-2-16T06:46:12Z
2023-02-16T04:46:50Z,42.805,6.029,13.3033,4.60112,2470.646,2023-2-16T06:49:15Z
2023-02-16T04:49:53Z,42.805,6.029,13.3036,4.60104,2470.67,2023-2-16T06:52:18Z
2023-02-16T04:52:56Z,42.805,6.029,13.3039,4.60116,2470.624,2023-2-16T06:55:21Z
2023-02-16T04:56:00Z,42.805,6.029,13.3031,4.60117,2470.661,2023-2-16T06:58:24Z
2023-02-16T04:59:03Z,42.805,6.029,13.3029,4.60101,2470.661,2023-2-16T07:01:27Z
2023-02-16T05:02:06Z,42.805,6.029,13.3037,4.60112,2470.661,2023-2-16T07:04:30Z
2023-02-16T05:05:09Z,42.805,6.029,13.3036,4.60097,2470.646,2023-2-16T07:07:33Z
2023-02-16T05:08:12Z,42.805,6.029,13.3034,4.60106,2470.67,2023-2-16T07:10:36Z
2023-02-16T05:11:15Z,42.805,6.029,13.3032,4.60111,2470.661,2023-2-16T07:13:39Z
2023-02-16T05:14:18Z,42.805,6.029,13.3033,4.60123,2470.646,2023-2-16T07:16:42Z
2023-02-16T05:17:21Z,42.805,6.029,13.3050,4.60131,2470.661,2023-2-16T07:19:45Z
2023-02-16T05:20:24Z,42.805,6.029,13.3041,4.60120,2470.637,2023-2-16T07:22:49Z
2023-02-16T05:23:27Z,42.805,6.029,13.3030,4.60099,2470.614,2023-2-16T07:25:52Z
2023-02-16T05:26:30Z,42.805,6.029,13.3029,4.60094,2470.624,2023-2-16T07:28:55Z
2023-02-16T05:29:33Z,42.805,6.029,13.3026,4.60094,2470.61,2023-2-16T07:31:58Z
2023-02-16T05:32:36Z,42.805,6.029,13.3035,4.60094,2470.661,2023-2-16T07:35:01Z
2023-02-16T05:35:40Z,42.805,6.029,13.3034,4.60105,2470.646,2023-2-16T07:38:04Z
2023-02-16T05:38:43Z,42.805,6.029,13.3036,4.60127,2470.646,2023-2-16T07:41:07Z
2023-02-16T05:41:46Z,42.805,6.029,13.3047,4.60119,2470.637,2023-2-16T07:44:10Z
2023-02-16T05:44:49Z,42.805,6.029,13.3037,4.60121,2470.6,2023-2-16T07:47:13Z
2023-02-16T05:47:52Z,42.805,6.029,13.3033,4.60129,2470.646,2023-2-16T07:50:16Z
2023-02-16T05:50:55Z,42.805,6.029,13.3034,4.60116,2470.646,2023-2-16T07:53:19Z
2023-02-16T05:53:58Z,42.805,6.029,13.3029,4.60119,2470.661,2023-2-16T07:56:22Z
2023-02-16T05:57:01Z,42.805,6.029,13.3034,4.60117,2470.646,2023-2-16T07:59:26Z
2023-02-16T06:00:04Z,42.805,6.029,13.3029,4.60109,2470.624,2023-2-16T08:02:29Z
2023-02-16T06:03:07Z,42.805,6.029,13.3039,4.60105,2470.624,2023-2-16T08:05:32Z
2023-02-16T06:06:10Z,42.805,6.029,13.3039,4.60118,2470.614,2023-2-16T08:08:35Z
2023-02-16T06:09:13Z,42.805,6.029,13.3028,4.60109,2470.646,2023-2-16T08:11:38Z
2023-02-16T06:12:16Z,42.805,6.029,13.3031,4.60120,2470.646,2023-2-16T08:14:41Z
2023-02-16T06:15:20Z,42.805,6.029,13.3034,4.60105,2470.624,2023-2-16T08:17:44Z
2023-02-16T06:18:23Z,42.805,6.029,13.3031,4.60119,2470.637,2023-2-16T08:20:47Z
2023-02-16T06:21:26Z,42.805,6.029,13.3035,4.60097,2470.661,2023-2-16T08:23:50Z
2023-02-16T06:24:29Z,42.805,6.029,13.3042,4.60128,2470.637,2023-2-16T08:26:53Z
2023-02-16T06:27:32Z,42.805,6.029,13.3032,4.60115,2470.624,2023-2-16T08:29:56Z
2023-02-16T06:30:35Z,42.805,6.029,13.3030,4.60117,2470.646,2023-2-16T08:32:59Z
2023-02-16T06:33:38Z,42.805,6.029,13.3042,4.60129,2470.646,2023-2-16T08:36:02Z
2023-02-16T06:36:41Z,42.805,6.029,13.3041,4.60124,2470.637,2023-2-16T08:39:06Z
2023-02-16T06:39:44Z,42.805,6.029,13.3044,4.60114,2470.6,2023-2-16T08:42:09Z
2023-02-16T06:42:47Z,42.805,6.029,13.3036,4.60117,2470.637,2023-2-16T08:45:12Z
2023-02-16T06:45:50Z,42.805,6.029,13.3043,4.60130,2470.637,2023-2-16T08:48:15Z
2023-02-16T06:48:53Z,42.805,6.029,13.3036,4.60122,2470.6,2023-2-16T08:51:18Z
2023-02-16T06:51:57Z,42.805,6.029,13.3045,4.60114,2470.637,2023-2-16T08:54:21Z
2023-02-16T06:55:00Z,42.805,6.029,13.3043,4.60135,2470.624,2023-2-16T08:57:24Z
2023-02-16T06:58:03Z,42.805,6.029,13.3040,4.60132,2470.624,2023-2-16T09:00:27Z
2023-02-16T07:01:06Z,42.805,6.029,13.3040,4.60125,2470.624,2023-2-16T09:03:30Z
2023-02-16T07:04:09Z,42.805,6.029,13.3031,4.60116,2470.646,2023-2-16T09:06:33Z
2023-02-16T07:07:12Z,42.805,6.029,13.3034,4.60109,2470.637,2023-2-16T09:09:36Z
2023-02-16T07:10:15Z,42.805,6.029,13.3046,4.60123,2470.614,2023-2-16T09:12:39Z
2023-02-16T07:13:18Z,42.805,6.029,13.3040,4.60119,2470.624,2023-2-16T09:15:43Z
2023-02-16T07:16:21Z,42.805,6.029,13.3034,4.60114,2470.624,2023-2-16T09:18:46Z
2023-02-16T07:19:24Z,42.805,6.029,13.3043,4.60132,2470.614,2023-2-16T09:21:49Z
2023-02-16T07:22:27Z,42.805,6.029,13.3035,4.60129,2470.624,2023-2-16T09:24:52Z
2023-02-16T07:25:30Z,42.805,6.029,13.3035,4.60129,2470.6,2023-2-16T09:27:55Z
2023-02-16T07:28:33Z,42.805,6.029,13.3040,4.60127,2470.6,2023-2-16T09:30:58Z
2023-02-16T07:31:37Z,42.805,6.029,13.3040,4.60138,2470.614,2023-2-16T09:34:01Z
2023-02-16T07:34:40Z,42.805,6.029,13.3033,4.60119,2470.624,2023-2-16T09:37:04Z
2023-02-16T07:37:43Z,42.805,6.029,13.3028,4.60117,2470.6,2023-2-16T09:40:07Z
2023-02-16T07:40:46Z,42.805,6.029,13.3032,4.60123,2470.614,2023-2-16T09:43:10Z
2023-02-16T07:43:49Z,42.805,6.029,13.3045,4.60149,2470.6,2023-2-16T09:46:13Z
2023-02-16T07:46:52Z,42.805,6.029,13.3042,4.60125,2470.6,2023-2-16T09:49:16Z
2023-02-16T07:49:55Z,42.805,6.029,13.3039,4.60132,2470.624,2023-2-16T09:52:19Z
2023-02-16T07:52:58Z,42.805,6.029,13.3034,4.60131,2470.637,2023-2-16T09:55:23Z
2023-02-16T07:56:01Z,42.805,6.029,13.3044,4.60149,2470.6,2023-2-16T09:58:26Z
2023-02-16T07:59:04Z,42.805,6.029,13.3038,4.60119,2470.577,2023-2-16T10:01:29Z
2023-02-16T08:02:07Z,42.805,6.029,13.3031,4.60114,2470.6,2023-2-16T10:04:32Z
2023-02-16T08:05:10Z,42.805,6.029,13.3046,4.60145,2470.586,2023-2-16T10:07:35Z
2023-02-16T08:08:13Z,42.805,6.029,13.3046,4.60144,2470.567,2023-2-16T10:10:38Z
2023-02-16T08:11:17Z,42.805,6.029,13.3053,4.60147,2470.6,2023-2-16T10:13:41Z
2023-02-16T08:14:20Z,42.805,6.029,13.3041,4.60140,2470.577,2023-2-16T10:16:44Z
2023-02-16T08:17:23Z,42.805,6.029,13.3034,4.60134,2470.577,2023-2-16T10:19:47Z
2023-02-16T08:20:26Z,42.805,6.029,13.3042,4.60152,2470.553,2023-2-16T10:22:50Z
2023-02-16T08:23:29Z,42.805,6.029,13.3042,4.60119,2470.577,2023-2-16T10:25:53Z
2023-02-16T08:26:32Z,42.805,6.029,13.3037,4.60132,2470.6,2023-2-16T10:28:56Z
2023-02-16T08:29:35Z,42.805,6.029,13.3036,4.60107,2470.6,2023-2-16T10:32:00Z
2023-02-16T08:32:38Z,42.805,6.029,13.3049,4.60131,2470.553,2023-2-16T10:35:03Z
2023-02-16T08:35:41Z,42.805,6.029,13.3033,4.60107,2470.591,2023-2-16T10:38:06Z
2023-02-16T08:38:44Z,42.805,6.029,13.3032,4.60130,2470.577,2023-2-16T10:41:09Z
2023-02-16T08:41:47Z,42.805,6.029,13.3043,4.60129,2470.577,2023-2-16T10:44:12Z
2023-02-16T08:44:50Z,42.805,6.029,13.3039,4.60129,2470.614,2023-2-16T10:47:15Z
2023-02-16T08:47:54Z,42.805,6.029,13.3046,4.60131,2470.6,2023-2-16T10:50:18Z
2023-02-16T08:50:57Z,42.805,6.029,13.3034,4.60116,2470.591,2023-2-16T10:53:21Z
2023-02-16T08:54:00Z,42.805,6.029,13.3036,4.60116,2470.6,2023-2-16T10:56:24Z
2023-02-16T08:57:03Z,42.805,6.029,13.3037,4.60140,2470.6,2023-2-16T10:59:27Z
2023-02-16T09:00:06Z,42.805,6.029,13.3042,4.60146,2470.577,2023-2-16T11:02:30Z
2023-02-16T09:03:09Z,42.805,6.029,13.3048,4.60135,2470.577,2023-2-16T11:05:33Z
2023-02-16T09:06:12Z,42.805,6.029,13.3045,4.60137,2470.591,2023-2-16T11:08:37Z
2023-02-16T09:09:15Z,42.805,6.029,13.3035,4.60133,2470.6,2023-2-16T11:11:40Z
2023-02-16T09:12:18Z,42.805,6.029,13.3043,4.60135,2470.553,2023-2-16T11:14:43Z
2023-02-16T09:15:21Z,42.805,6.029,13.3034,4.60106,2470.577,2023-2-16T11:17:46Z
2023-02-16T09:18:24Z,42.805,6.029,13.3036,4.60142,2470.553,2023-2-16T11:20:49Z
2023-02-16T09:21:27Z,42.805,6.029,13.3036,4.60137,2470.553,2023-2-16T11:23:52Z
2023-02-16T09:24:31Z,42.805,6.029,13.3036,4.60130,2470.614,2023-2-16T11:26:55Z
2023-02-16T09:27:34Z,42.805,6.029,13.3037,4.60122,2470.553,2023-2-16T11:29:58Z
2023-02-16T09:30:37Z,42.805,6.029,13.3044,4.60128,2470.577,2023-2-16T11:33:01Z
2023-02-16T09:33:40Z,42.805,6.029,13.3042,4.60141,2470.577,2023-2-16T11:36:04Z
2023-02-16T09:36:43Z,42.805,6.029,13.3043,4.60137,2470.6,2023-2-16T11:39:07Z
2023-02-16T09:39:46Z,42.805,6.029,13.3038,4.60128,2470.614,2023-2-16T11:42:10Z
2023-02-16T09:42:49Z,42.805,6.029,13.3043,4.60128,2470.6,2023-2-16T11:45:14Z
2023-02-16T09:45:52Z,42.805,6.029,13.3038,4.60145,2470.591,2023-2-16T11:48:17Z
2023-02-16T09:48:55Z,42.805,6.029,13.3040,4.60127,2470.553,2023-2-16T11:51:20Z
2023-02-16T09:51:58Z,42.805,6.029,13.3041,4.60131,2470.553,2023-2-16T11:54:23Z
2023-02-16T09:55:01Z,42.805,6.029,13.3048,4.60143,2470.6,2023-2-16T11:57:26Z
2023-02-16T09:58:04Z,42.805,6.029,13.3039,4.60129,2470.6,2023-2-16T12:00:29Z
2023-02-16T10:01:08Z,42.805,6.029,13.3053,4.60126,2470.553,2023-2-16T12:03:32Z
2023-02-16T10:04:11Z,42.805,6.029,13.3034,4.60140,2470.553,2023-2-16T12:06:35Z
2023-02-16T10:07:14Z,42.805,6.029,13.3039,4.60147,2470.577,2023-2-16T12:09:38Z
2023-02-16T10:10:17Z,42.805,6.029,13.3045,4.60145,2470.591,2023-2-16T12:12:41Z
2023-02-16T10:13:20Z,42.805,6.029,13.3051,4.60142,2470.577,2023-2-16T12:15:44Z
2023-02-16T10:16:23Z,42.805,6.029,13.3044,4.60145,2470.553,2023-2-16T12:18:47Z
2023-02-16T10:19:26Z,42.805,6.029,13.3043,4.60148,2470.567,2023-2-16T12:21:51Z
2023-02-16T10:22:29Z,42.805,6.029,13.3036,4.60137,2470.577,2023-2-16T12:24:54Z
2023-02-16T10:25:32Z,42.805,6.029,13.3054,4.60144,2470.577,2023-2-16T12:27:57Z
2023-02-16T10:28:35Z,42.805,6.029,13.3039,4.60142,2470.577,2023-2-16T12:31:00Z
2023-02-16T10:31:38Z,42.805,6.029,13.3043,4.60122,2470.577,2023-2-16T12:34:03Z
2023-02-16T10:34:41Z,42.805,6.029,13.3036,4.60129,2470.577,2023-2-16T12:37:06Z
2023-02-16T10:37:45Z,42.805,6.029,13.3031,4.60122,2470.577,2023-2-16T12:40:09Z
2023-02-16T10:40:48Z,42.805,6.029,13.3034,4.60129,2470.553,2023-2-16T12:43:12Z
2023-02-16T10:43:51Z,42.805,6.029,13.3041,4.60122,2470.544,2023-2-16T12:46:15Z
2023-02-16T10:46:54Z,42.805,6.029,13.3037,4.60139,2470.553,2023-2-16T12:49:18Z
2023-02-16T10:49:57Z,42.805,6.029,13.3051,4.60144,2470.591,2023-2-16T12:52:21Z
2023-02-16T10:53:00Z,42.805,6.029,13.3051,4.60140,2470.553,2023-2-16T12:55:25Z
2023-02-16T10:56:03Z,42.805,6.029,13.3042,4.60132,2470.553,2023-2-16T12:58:28Z
2023-02-16T10:59:06Z,42.805,6.029,13.3030,4.60117,2470.567,2023-2-16T13:01:31Z
2023-02-16T11:02:09Z,42.805,6.029,13.3040,4.60125,2470.553,2023-2-16T13:04:34Z
2023-02-16T11:05:12Z,42.805,6.029,13.3035,4.60126,2470.53,2023-2-16T13:07:37Z
2023-02-16T11:08:15Z,42.805,6.029,13.3035,4.60121,2470.567,2023-2-16T13:10:40Z
2023-02-16T11:11:19Z,42.805,6.029,13.3034,4.60105,2470.6,2023-2-16T13:13:43Z
2023-02-16T11:14:22Z,42.805,6.029,13.3046,4.60132,2470.553,2023-2-16T13:16:46Z
2023-02-16T11:17:25Z,42.805,6.029,13.3041,4.60112,2470.577,2023-2-16T13:19:49Z
2023-02-16T11:20:28Z,42.805,6.029,13.3043,4.60120,2470.567,2023-2-16T13:22:52Z
2023-02-16T11:23:31Z,42.805,6.029,13.3041,4.60124,2470.6,2023-2-16T13:25:55Z
2023-02-16T11:26:34Z,42.805,6.029,13.3048,4.60113,2470.553,2023-2-16T13:28:58Z
2023-02-16T11:29:37Z,42.805,6.029,13.3037,4.60135,2470.567,2023-2-16T13:32:02Z
2023-02-16T11:32:40Z,42.805,6.029,13.3048,4.60130,2470.53,2023-2-16T13:35:05Z
2023-02-16T11:35:43Z,42.805,6.029,13.3039,4.60138,2470.553,2023-2-16T13:38:08Z
2023-02-16T11:38:46Z,42.805,6.029,13.3037,4.60140,2470.591,2023-2-16T13:41:11Z
2023-02-16T11:41:49Z,42.805,6.029,13.3034,4.60119,2470.577,2023-2-16T13:44:14Z
2023-02-16T11:44:52Z,42.805,6.029,13.3042,4.60119,2470.577,2023-2-16T13:47:17Z
2023-02-16T11:47:56Z,42.805,6.029,13.3038,4.60122,2470.577,2023-2-16T13:50:20Z
2023-02-16T11:50:59Z,42.805,6.029,13.3041,4.60118,2470.553,2023-2-16T13:53:23Z
2023-02-16T11:54:02Z,42.805,6.029,13.3041,4.60105,2470.567,2023-2-16T13:56:26Z
2023-02-16T11:57:05Z,42.805,6.029,13.3039,4.60122,2470.591,2023-2-16T13:59:29Z
2023-02-16T12:00:08Z,42.805,6.029,13.3036,4.60126,2470.567,2023-2-16T14:02:32Z
2023-02-16T12:03:11Z,42.805,6.029,13.3036,4.60112,2470.577,2023-2-16T14:05:36Z
2023-02-16T12:06:14Z,42.805,6.029,13.3044,4.60127,2470.53,2023-2-16T14:08:39Z
2023-02-16T12:09:17Z,42.805,6.029,13.3038,4.60128,2470.577,2023-2-16T14:11:42Z
2023-02-16T12:12:20Z,42.805,6.029,13.3036,4.60114,2470.591,2023-2-16T14:14:45Z
2023-02-16T12:15:23Z,42.805,6.029,13.3041,4.60125,2470.553,2023-2-16T14:17:48Z
2023-02-16T12:18:26Z,42.805,6.029,13.3043,4.60120,2470.6,2023-2-16T14:20:51Z
2023-02-16T12:21:29Z,42.805,6.029,13.3039,4.60121,2470.563,2023-2-16T14:23:54Z
2023-02-16T12:24:33Z,42.805,6.029,13.3039,4.60111,2470.553,2023-2-16T14:26:57Z
2023-02-16T12:27:36Z,42.805,6.029,13.3040,4.60113,2470.577,2023-2-16T14:30:00Z
2023-02-16T12:30:39Z,42.805,6.029,13.3036,4.60114,2470.577,2023-2-16T14:33:03Z
2023-02-16T12:33:42Z,42.805,6.029,13.3038,4.60130,2470.567,2023-2-16T14:36:06Z
2023-02-16T12:36:45Z,42.805,6.029,13.3034,4.60137,2470.591,2023-2-16T14:39:09Z
2023-02-16T12:39:48Z,42.805,6.029,13.3043,4.60119,2470.53,2023-2-16T14:42:12Z
2023-02-16T12:42:51Z,42.805,6.029,13.3033,4.60109,2470.591,2023-2-16T14:45:16Z
2023-02-16T12:45:54Z,42.805,6.029,13.3036,4.60107,2470.553,2023-2-16T14:48:19Z
2023-02-16T12:48:57Z,42.805,6.029,13.3043,4.60114,2470.591,2023-2-16T14:51:22Z
2023-02-16T12:52:00Z,42.805,6.029,13.3034,4.60102,2470.577,2023-2-16T14:54:25Z
2023-02-16T12:55:03Z,42.805,6.029,13.3038,4.60112,2470.544,2023-2-16T14:57:28Z
2023-02-16T12:58:06Z,42.805,6.029,13.3043,4.60116,2470.614,2023-2-16T15:00:31Z
2023-02-16T13:01:10Z,42.805,6.029,13.3044,4.60121,2470.577,2023-2-16T15:03:34Z
2023-02-16T13:04:13Z,42.805,6.029,13.3036,4.60115,2470.553,2023-2-16T15:06:37Z
2023-02-16T13:07:16Z,42.805,6.029,13.3037,4.60125,2470.567,2023-2-16T15:09:40Z
2023-02-16T13:10:19Z,42.805,6.029,13.3036,4.60119,2470.591,2023-2-16T15:12:43Z
2023-02-16T13:13:22Z,42.805,6.029,13.3034,4.60128,2470.577,2023-2-16T15:15:46Z
2023-02-16T13:16:25Z,42.805,6.029,13.3031,4.60112,2470.591,2023-2-16T15:18:50Z
2023-02-16T13:19:28Z,42.805,6.029,13.3036,4.60107,2470.577,2023-2-16T15:21:53Z
2023-02-16T13:22:31Z,42.805,6.029,13.3039,4.60105,2470.567,2023-2-16T15:24:56Z
2023-02-16T13:25:34Z,42.805,6.029,13.3031,4.60104,2470.614,2023-2-16T15:27:59Z
2023-02-16T13:28:37Z,42.805,6.029,13.3041,4.60121,2470.591,2023-2-16T15:31:02Z
2023-02-16T13:31:40Z,42.805,6.029,13.3030,4.60110,2470.577,2023-2-16T15:34:05Z
2023-02-16T13:34:43Z,42.805,6.029,13.3034,4.60108,2470.577,2023-2-16T15:37:08Z
2023-02-16T13:37:47Z,42.805,6.029,13.3046,4.60115,2470.577,2023-2-16T15:40:11Z
2023-02-16T13:40:50Z,42.805,6.029,13.3026,4.60110,2470.553,2023-2-16T15:43:14Z
2023-02-16T13:43:53Z,42.805,6.029,13.3030,4.60104,2470.577,2023-2-16T15:46:17Z
2023-02-16T13:46:56Z,42.805,6.029,13.3031,4.60102,2470.577,2023-2-16T15:49:20Z
2023-02-16T13:49:59Z,42.805,6.029,13.3034,4.60112,2470.577,2023-2-16T15:52:23Z
2023-02-16T13:53:02Z,42.805,6.029,13.3034,4.60115,2470.6,2023-2-16T15:55:27Z
2023-02-16T13:56:05Z,42.805,6.029,13.3039,4.60123,2470.591,2023-2-16T15:58:30Z
2023-02-16T13:59:08Z,42.805,6.029,13.3036,4.60110,2470.6,2023-2-16T16:01:33Z
2023-02-16T14:02:11Z,42.805,6.029,13.3034,4.60111,2470.591,2023-2-16T16:04:36Z
2023-02-16T14:05:14Z,42.805,6.029,13.3037,4.60136,2470.577,2023-2-16T16:07:39Z
2023-02-16T14:08:17Z,42.805,6.029,13.3030,4.60106,2470.591,2023-2-16T16:10:42Z
2023-02-16T14:11:20Z,42.805,6.029,13.3031,4.60108,2470.553,2023-2-16T16:13:45Z
2023-02-16T14:14:24Z,42.805,6.029,13.3031,4.60108,2470.614,2023-2-16T16:16:48Z
2023-02-16T14:17:27Z,42.805,6.029,13.3041,4.60123,2470.6,2023-2-16T16:19:51Z
2023-02-16T14:20:30Z,42.805,6.029,13.3034,4.60113,2470.6,2023-2-16T16:22:54Z
2023-02-16T14:23:33Z,42.805,6.029,13.3034,4.60105,2470.6,2023-2-16T16:25:57Z
2023-02-16T14:26:36Z,42.805,6.029,13.3041,4.60107,2470.614,2023-2-16T16:29:01Z
2023-02-16T14:29:39Z,42.805,6.029,13.3041,4.60114,2470.591,2023-2-16T16:32:04Z
2023-02-16T14:32:42Z,42.805,6.029,13.3051,4.60133,2470.614,2023-2-16T16:35:07Z
2023-02-16T14:35:45Z,42.805,6.029,13.3034,4.60130,2470.591,2023-2-16T16:38:10Z
2023-02-16T14:38:48Z,42.805,6.029,13.3035,4.60132,2470.637,2023-2-16T16:41:13Z
2023-02-16T14:41:51Z,42.805,6.029,13.3041,4.60127,2470.591,2023-2-16T16:44:16Z
2023-02-16T14:44:54Z,42.805,6.029,13.3044,4.60141,2470.614,2023-2-16T16:47:19Z
2023-02-16T14:47:57Z,42.805,6.029,13.3042,4.60155,2470.577,2023-2-16T16:50:22Z
2023-02-16T14:51:01Z,42.805,6.029,13.3034,4.60115,2470.6,2023-2-16T16:53:25Z
2023-02-16T14:54:04Z,42.805,6.029,13.3032,4.60119,2470.591,2023-2-16T16:56:28Z
2023-02-16T14:57:07Z,42.805,6.029,13.3031,4.60122,2470.577,2023-2-16T16:59:31Z
2023-02-16T15:00:10Z,42.805,6.029,13.3028,4.60129,2470.577,2023-2-16T17:02:34Z
2023-02-16T15:03:13Z,42.805,6.029,13.3032,4.60117,2470.637,2023-2-16T17:05:38Z
2023-02-16T15:06:16Z,42.805,6.029,13.3032,4.60120,2470.6,2023-2-16T17:08:41Z
2023-02-16T15:09:19Z,42.805,6.029,13.3033,4.60136,2470.577,2023-2-16T17:11:44Z
2023-02-16T15:12:22Z,42.805,6.029,13.3038,4.60112,2470.577,2023-2-16T17:14:47Z